Location: Newport
(44.6370°N, 124.0520°W)
Time: 16:55:27
(UTC-07:00)

Vanguard 2 Rocket - All Passes

Search period start: 20 July 2018 00:00
Search period end: 30 July 2018 00:00
Orbit: 554 x 3327 km, 32.9° (Epoch: 20 July)

Date Brightness Start Highest point End Pass type
(mag) Time Alt. Az. Time Alt. Az. Time Alt. Az.
20 Jul - 03:10:26 10° SSW 03:14:53 22° SSE 03:21:13 10° ESE visible
20 Jul - 05:20:28 10° WSW 05:27:22 41° S 05:39:00 10° ESE daylight
20 Jul - 07:32:27 10° WSW 07:41:32 39° SSW 07:56:05 10° SE daylight
20 Jul - 09:46:45 10° WSW 09:56:40 24° SSW 10:09:49 10° SSE daylight
21 Jul - 02:13:38 10° SSE 02:16:01 13° SE 02:18:51 10° ESE visible
21 Jul - 04:22:04 10° SW 04:27:49 35° SSE 04:37:10 10° ESE visible
21 Jul - 06:33:25 10° WSW 06:41:17 40° S 06:54:23 10° ESE daylight
21 Jul - 08:46:36 10° WSW 08:56:01 29° SSW 09:09:33 10° SSE daylight
21 Jul - 11:06:27 10° SW 11:11:08 12° SW 11:16:16 10° SSW daylight
22 Jul - 03:23:55 10° SSW 03:28:36 26° SSE 03:35:34 10° ESE visible
22 Jul - 05:34:39 10° WSW 05:41:22 39° S 05:52:38 10° ESE daylight
22 Jul - 07:47:01 10° WSW 07:55:33 32° SSW 08:08:39 10° SE daylight
22 Jul - 10:03:03 10° WSW 10:10:31 16° SSW 10:19:37 10° S daylight
23 Jul - 02:26:15 10° SSW 02:29:38 18° SSE 02:34:02 10° ESE visible
23 Jul - 04:36:06 10° WSW 04:41:47 35° S 04:51:01 10° ESE visible
23 Jul - 06:47:51 10° WSW 06:55:22 34° S 07:07:23 10° SE daylight
23 Jul - 09:02:03 10° WSW 09:09:59 20° SSW 09:20:34 10° SSE daylight
24 Jul - 03:37:46 10° SW 03:42:28 29° SSE 03:49:39 10° ESE visible
24 Jul - 05:48:59 10° WSW 05:55:27 35° S 06:06:00 10° SE daylight
24 Jul - 08:02:01 10° WSW 08:09:37 24° SSW 08:20:29 10° SSE daylight
25 Jul - 02:39:41 10° SSW 02:43:25 22° SSE 02:48:31 10° ESE visible
25 Jul - 04:50:20 10° WSW 04:55:50 33° S 05:04:40 10° ESE visible
25 Jul - 07:02:35 10° WSW 07:09:28 27° SSW 07:19:51 10° SSE daylight
25 Jul - 09:19:25 10° SW 09:23:59 13° SSW 09:29:18 10° S daylight
26 Jul - 01:42:06 10° S 01:44:31 14° SSE 01:47:22 10° ESE visible
26 Jul - 03:51:51 10° SW 03:56:30 30° S 04:03:32 10° ESE visible
26 Jul - 06:03:32 10° WSW 06:09:35 28° S 06:18:57 10° SE daylight
26 Jul - 08:17:58 10° WSW 08:23:42 16° SSW 08:31:01 10° S daylight
27 Jul - 02:53:32 10° SW 02:57:22 24° SSE 03:02:40 10° ESE visible
27 Jul - 05:04:44 10° WSW 05:09:58 28° S 05:18:00 10° SE visible
27 Jul - 07:17:54 10° WSW 07:23:37 19° SSW 07:31:25 10° SSE daylight
28 Jul - 01:55:26 10° SSW 01:58:24 18° SSE 02:02:02 10° ESE visible
28 Jul - 04:06:07 10° WSW 04:10:35 27° S 04:17:11 10° SE visible
28 Jul - 06:18:28 10° WSW 06:23:45 21° SSW 06:31:15 10° SSE daylight
29 Jul - 00:57:50 10° S 00:59:29 12° SSE 01:01:16 10° SE night (unlit)
29 Jul - 03:07:39 10° SW 03:11:25 24° S 03:16:35 10° ESE visible
29 Jul - 05:19:27 10° WSW 05:24:08 22° S 05:30:52 10° SE visible
29 Jul - 07:35:18 10° SW 07:37:48 11° SSW 07:40:36 10° S daylight
